MDT,Max TemperatureF,Mean TemperatureF,Min TemperatureF,Max Dew PointF,MeanDew PointF,Min DewpointF,Max Humidity, Mean Humidity, Min Humidity, Max Sea Level PressureIn, Mean Sea Level PressureIn, Min Sea Level PressureIn, Max VisibilityMiles, Mean VisibilityMiles, Min VisibilityMiles, Max Wind SpeedMPH, Mean Wind SpeedMPH, Max Gust SpeedMPH,PrecipitationIn, CloudCover, Events, WindDirDegrees
2012-8-1,102,86,70,63,59,54,68,45,21,30.01,29.86,29.73,10,9,2,36,9,49,0.01,1,Rain-Thunderstorm,192
2012-8-2,96,83,69,65,61,55,79,54,28,29.96,29.86,29.77,10,10,10,24,8,29,T,1,Rain-Thunderstorm,101
2012-8-3,100,81,61,62,57,51,84,53,21,29.90,29.76,29.64,10,10,10,32,13,41,0.02,1,Rain-Thunderstorm,187
2012-8-4,85,71,56,57,47,38,75,48,20,30.16,30.05,29.91,10,10,9,29,8,37,T,1,Rain-Thunderstorm,1
2012-8-5,94,73,52,49,44,37,77,46,15,30.25,30.14,30.05,10,10,10,23,12,32,0.00,0,,165
2012-8-6,103,84,65,61,50,34,59,35,11,30.07,29.97,29.88,10,10,2,18,9,28,0.00,0,,170
2012-8-7,99,85,71,64,57,48,81,50,18,30.20,29.98,29.90,10,10,1,35,7,46,0.88,1,Rain-Thunderstorm,43
2012-8-8,100,80,60,61,53,41,90,52,14,30.08,30.02,29.95,10,10,10,16,7,22,0.00,0,,340
2012-8-9,87,72,57,60,54,48,93,60,27,30.22,30.11,30.05,10,10,8,14,6,18,0.00,0,,64
2012-8-10,89,76,62,57,53,48,78,52,26,30.20,30.06,29.95,10,10,10,18,9,24,T,0,Rain-Thunderstorm,159
2012-8-11,90,75,59,61,54,48,84,56,27,30.01,29.91,29.82,10,10,10,22,10,30,T,1,Rain-Thunderstorm,154
2012-8-12,87,73,58,57,52,48,84,56,27,30.12,30.03,29.96,10,10,10,22,11,29,0.00,0,,346
2012-8-13,83,68,52,54,50,47,93,61,28,30.19,30.08,29.96,10,10,9,23,7,29,0.00,0,,128
2012-8-14,89,74,59,59,57,54,87,60,32,29.97,29.87,29.76,10,10,10,18,9,22,0.00,0,,173
2012-8-15,97,79,61,59,53,41,84,50,15,30.01,29.79,29.69,10,10,9,26,13,35,0.00,0,,301
2012-8-16,71,62,52,51,46,42,77,56,35,30.23,30.16,30.07,10,10,10,16,6,20,T,3,Rain,14
2012-8-17,82,66,49,48,44,40,77,53,28,30.20,30.08,29.96,10,10,10,18,7,25,0.00,1,,153
2012-8-18,84,67,49,51,41,35,83,51,18,30.10,30.01,29.98,10,10,10,26,9,33,0.00,0,,39
2012-8-19,82,64,45,48,42,38,80,51,21,30.16,30.09,30.01,10,10,10,15,4,20,0.00,0,,262
2012-8-20,86,69,51,49,43,39,64,44,23,30.02,29.97,29.92,10,10,10,20,9,25,0.00,0,,196
2012-8-21,93,75,57,53,49,41,64,41,18,30.00,29.94,29.90,10,10,10,22,9,26,0.00,0,,193
2012-8-22,95,78,60,58,53,48,84,52,20,29.89,29.83,29.75,10,10,9,22,12,31,0.00,0,,179
2012-8-23,85,74,62,65,59,55,93,65,37,29.86,29.83,29.79,10,9,6,17,7,22,0.02,2,Rain,104
2012-8-24,81,72,62,65,63,61,100,79,58,29.92,29.81,29.73,10,7,2,18,6,23,0.00,5,,121
2012-8-25,86,73,60,67,60,46,100,64,28,29.95,29.87,29.72,10,5,0,23,8,31,0.00,5,Fog,61
2012-8-26,95,74,53,62,57,52,93,60,26,30.07,30.00,29.91,10,8,2,22,7,28,0.01,1,Rain-Thunderstorm,150
2012-8-27,101,81,61,62,55,40,100,56,12,30.19,30.04,29.97,10,10,5,21,10,25,0.00,0,,163
2012-8-28,103,84,64,55,48,37,67,39,11,30.15,29.97,29.88,10,10,9,22,12,29,0.00,0,,193
2012-8-29,104,82,59,45,37,27,51,29,7,29.94,29.86,29.79,10,10,9,23,13,31,0.00,0,,202
2012-8-30,102,82,62,41,36,27,43,25,7,29.90,29.85,29.80,10,10,10,28,13,33,0.00,0,,198
2012-8-31,99,77,54,46,42,32,72,42,11,30.00,29.95,29.91,10,10,10,21,7,29,0.00,0,,154